Burns Flat, OK

8:12 PM CDT on September 27, 2016 (GMT -0500)
Clinton-Sherman

Weather History for KCSM - July, 2013

Change the Weather History Date:

Wednesday, July 10, 2013

  Actual Average Record
Temperature  
Mean Temperature 88 °F -  
Max Temperature 102 °F 93 °F 105 °F (2011)
Min Temperature 77 °F 69 °F 62 °F (1999)
Cooling Degree Days 24    
Growing Degree Days 38 (Base 50)    
Moisture  
Dew Point 59 °F    
Average Humidity 36    
Maximum Humidity 56    
Minimum Humidity 23    
Precipitation  
Precipitation 0.00 in - - ()
Sea Level Pressure  
Sea Level Pressure 29.94 in    
Wind  
Wind Speed 10 mph (SSW)    
Max Wind Speed 16 mph    
Max Gust Speed 24 mph    
Visibility 10 miles    
Events      
Averages and records for this station are not official NWS values.
T = Trace of Precipitation, MM = Missing Value Source: NWS Daily Summary

Daily Weather History Graph

Daily Weather History Graph

Search for Another Location

Airport or City:

Trip Planner

Search our weather history database for the weather conditions in past years. The results will help you decide how hot, cold, wet, or windy it might be!

Date:

Astronomy

Jul. 10, 2013 Rise Set
Actual Time 6:30 AM CDT 8:53 PM CDT
Civil Twilight 6:00 AM CDT 9:23 PM CDT
Nautical Twilight 5:24 AM CDT 9:59 PM CDT
Astronomical Twilight 4:45 AM CDT 10:38 PM CDT
Moon 8:46 AM CDT (7/10) 10:12 PM CDT (7/10)
Length of Visible Light 15h 22m
Length of Day
14h 23m
Waxing Crescent, 5% of the Moon is Illuminated
Jul 10
Waxing Crescent
Jul 15
First Quarter
Jul 22
Full
Jul 29
Last Quarter
Aug 6
New

Hourly Weather History & Observations

Time (CDT) Temp. Heat Index Dew Point Humidity Pressure Visibility Wind Dir Wind Speed Gust Speed Precip Events Conditions
12:53 AM 86.0 °F 85.4 °F 59.0 °F 40% 29.95 in 10.0 mi South 12.7 mph - N/A   Clear
1:53 AM 84.0 °F 83.8 °F 59.0 °F 43% 29.94 in 10.0 mi South 11.5 mph - N/A   Clear
2:53 AM 82.9 °F 82.8 °F 59.0 °F 44% 29.94 in 10.0 mi South 13.8 mph - N/A   Clear
3:53 AM 81.0 °F 81.3 °F 59.0 °F 47% 29.94 in 10.0 mi SSW 11.5 mph - N/A   Clear
4:53 AM 80.1 °F 80.7 °F 59.0 °F 48% 29.96 in 10.0 mi SSW 9.2 mph - N/A   Clear
5:53 AM 78.1 °F - 59.0 °F 52% 29.97 in 10.0 mi Calm Calm - N/A   Clear
6:53 AM 77.0 °F - 60.1 °F 56% 29.99 in 10.0 mi WSW 3.5 mph - N/A   Clear
7:53 AM 80.1 °F 80.9 °F 60.1 °F 50% 29.97 in 10.0 mi SSW 10.4 mph - N/A   Clear
8:53 AM 86.0 °F 85.7 °F 60.1 °F 41% 29.97 in 10.0 mi SW 15.0 mph - N/A   Clear
9:53 AM 91.0 °F 90.2 °F 59.0 °F 34% 29.99 in 10.0 mi West 16.1 mph 24.2 mph N/A   Clear
10:53 AM 93.0 °F 92.3 °F 59.0 °F 32% 29.99 in 10.0 mi West 15.0 mph 21.9 mph N/A   Clear
11:53 AM 95.0 °F 94.4 °F 59.0 °F 30% 29.99 in 10.0 mi West 11.5 mph 20.7 mph N/A   Clear
12:53 PM 97.0 °F 96.5 °F 59.0 °F 28% 29.97 in 10.0 mi SW 11.5 mph 20.7 mph N/A   Clear
1:53 PM 97.0 °F 96.5 °F 59.0 °F 28% 29.96 in 10.0 mi Variable 5.8 mph - N/A   Partly Cloudy
2:53 PM 98.1 °F 97.2 °F 57.9 °F 26% 29.95 in 10.0 mi Variable 3.5 mph - N/A   Scattered Clouds
3:53 PM 100.9 °F 100.5 °F 57.9 °F 24% 29.93 in 10.0 mi South 12.7 mph 17.3 mph N/A   Partly Cloudy
4:53 PM 100.9 °F 100.0 °F 57.0 °F 23% 29.89 in 10.0 mi SSW 8.1 mph - N/A   Clear
5:53 PM 100.9 °F 100.0 °F 57.0 °F 23% 29.87 in 10.0 mi South 11.5 mph 19.6 mph N/A   Clear
6:53 PM 98.1 °F 97.2 °F 57.9 °F 26% 29.86 in 10.0 mi South 11.5 mph 18.4 mph N/A   Clear
7:53 PM 96.1 °F 95.2 °F 57.9 °F 28% 29.87 in 10.0 mi South 10.4 mph - N/A   Partly Cloudy
8:53 PM 91.9 °F 90.8 °F 57.9 °F 32% 29.87 in 10.0 mi South 8.1 mph - N/A   Clear
9:53 PM 89.1 °F 88.0 °F 57.9 °F 35% 29.89 in 10.0 mi South 8.1 mph - N/A   Clear
10:53 PM 84.9 °F 84.4 °F 59.0 °F 41% 29.92 in 10.0 mi South 6.9 mph - N/A   Clear
11:53 PM 86.0 °F 85.4 °F 59.0 °F 40% 29.93 in 10.0 mi SSE 6.9 mph - N/A   Clear